Back to catalog

CZ-3C R/B

AliveHEO
NORAD 41870·ROCKET BODY·🇨🇳 China

Launched Nov 22, 2016 from Xichang Satellite Launch Center

Loading…

Next Passes (next 24 hours)

TLE

FreshSource: Space-Track

Epoch: Sep 14, 2026, 15:41 UTC

1 41870U 16072B   26257.65375153  .00000287  00000-0  46445-3 0  9996
2 41870  16.8809  43.4239 5135821 210.8056 105.1193  5.17434707164971

Track CZ-3C R/B in real time with AllMySat

Download on the App Store